OKCER LKVO-LKCS

Flight info

Callsign OKCER
Flight time N/A
Altitude 11000
Route ELPON DCT UPEGU
Aircraft PC12/L-SDFGRWY/S

Departure

Time 2026-04-21 19:51
Airport Vodochody Airport (LKVO)

Arrival

Time N/A
Airport České Budějovice South Bohemian Airport (LKCS)
Time Latitude Longitude Altitude Speed Heading
2026-04-21 19:42 50.21980 14.39094 913 ft 0 kts 164°
2026-04-21 19:48 50.21988 14.39095 913 ft 2 kts 206°
2026-04-21 19:48 50.21992 14.39081 913 ft 8 kts 258°
2026-04-21 19:48 50.21973 14.38971 912 ft 12 kts 252°
2026-04-21 19:49 50.21945 14.38838 911 ft 14 kts 252°
2026-04-21 19:49 50.21892 14.38744 910 ft 4 kts 196°
2026-04-21 19:49 50.21872 14.38736 910 ft 7 kts 195°
2026-04-21 19:49 50.21807 14.38721 910 ft 5 kts 135°
2026-04-21 19:50 50.21800 14.38758 910 ft 0 kts 101°
2026-04-21 19:50 50.21799 14.38768 911 ft 11 kts 101°
2026-04-21 19:50 50.21731 14.39173 915 ft 67 kts 105°
2026-04-21 19:50 50.21570 14.40113 995 ft 105 kts 105°
2026-04-21 19:51 50.21342 14.41250 1395 ft 114 kts 110°
2026-04-21 19:51 50.21088 14.42498 1759 ft 131 kts 103°
2026-04-21 19:51 50.20860 14.44005 2309 ft 139 kts 99°
2026-04-21 19:51 50.20645 14.45438 3100 ft 136 kts 99°
2026-04-21 19:52 50.20492 14.46884 3749 ft 136 kts 96°
2026-04-21 19:52 50.20118 14.48256 4388 ft 146 kts 128°
2026-04-21 19:52 50.19158 14.48993 4939 ft 163 kts 160°
2026-04-21 19:52 50.18030 14.49460 5461 ft 172 kts 160°
2026-04-21 19:53 50.17004 14.49924 5884 ft 180 kts 159°
2026-04-21 19:53 50.15802 14.50500 6412 ft 186 kts 159°
2026-04-21 19:53 50.14552 14.51106 6934 ft 190 kts 159°
2026-04-21 19:53 50.13286 14.51718 7497 ft 191 kts 159°
2026-04-21 19:54 50.12012 14.52334 8041 ft 192 kts 159°
2026-04-21 19:54 50.10725 14.52956 8583 ft 194 kts 159°
2026-04-21 19:54 50.09427 14.53583 9123 ft 196 kts 160°
2026-04-21 19:54 50.08120 14.54214 9670 ft 198 kts 160°
2026-04-21 19:55 50.06796 14.54853 10214 ft 199 kts 160°
2026-04-21 19:55 50.05464 14.55495 10693 ft 201 kts 160°
2026-04-21 19:55 50.04127 14.56140 11176 ft 202 kts 159°
2026-04-21 19:55 50.02792 14.56783 11647 ft 204 kts 159°
2026-04-21 19:56 50.01435 14.57436 12116 ft 205 kts 159°
2026-04-21 19:56 50.00020 14.58121 12232 ft 222 kts 159°
2026-04-21 19:56 49.98489 14.58856 12236 ft 237 kts 159°
2026-04-21 19:56 49.96892 14.59618 12425 ft 238 kts 159°
2026-04-21 19:57 49.95328 14.60364 12831 ft 232 kts 159°
2026-04-21 19:57 49.93796 14.61101 13209 ft 230 kts 159°
2026-04-21 19:57 49.92187 14.61623 13225 ft 245 kts 174°
2026-04-21 19:57 49.90450 14.61428 13222 ft 254 kts 183°
2026-04-21 19:58 49.88670 14.61125 13222 ft 260 kts 183°
2026-04-21 19:58 49.86910 14.61276 13215 ft 257 kts 159°
2026-04-21 19:58 49.85433 14.62723 13215 ft 251 kts 129°
2026-04-21 19:58 49.84621 14.65053 13233 ft 245 kts 105°
2026-04-21 19:59 49.84067 14.67774 13228 ft 246 kts 107°
2026-04-21 19:59 49.83344 14.70204 13228 ft 250 kts 114°
2026-04-21 19:59 49.82496 14.72566 13230 ft 251 kts 116°
2026-04-21 19:59 49.81677 14.74923 13229 ft 251 kts 114°
2026-04-21 20:00 49.80879 14.77342 13227 ft 251 kts 113°
2026-04-21 20:00 49.80087 14.79748 13227 ft 251 kts 114°
2026-04-21 20:00 49.79280 14.82160 13224 ft 252 kts 114°
2026-04-21 20:00 49.78471 14.84571 13226 ft 252 kts 114°